Date String (YYYY-MM-DD hh:mm:ss) UTC,Instrument flags,Ambient pressure (hPa),Sample flow (lpm),Bypass flow (lpm),Sample temperature (°C),Ambient temperature (°C),ASC tube jacket temperature (°C),LED temperature (°C),Box temperature (°C),Sample RH (%),Span deviation,Mass concentration (μg/m³),Mass concentration (μg/m³),Mass concentration (μg/m³)
DateTimeUTC,F1_M11,P_M11,Q1_M11,Q2_M11,T1_M11,T2_M11,T3_M11,T4_M11,T5_M11,U1_M11,ZSPAN_M11,X0_M11,X2_M11,X1_M11
2022-10-16 20:00:00,,0833.6,5.00,0.00,28.4,27.0,00.0,37.2,30.3,15.7,0000.0,0011.65,0007.47,0006.93
2022-10-16 20:01:00,,0833.6,5.00,0.00,28.4,27.0,00.0,37.2,30.2,15.5,0000.0,0011.55,0007.44,0006.92
2022-10-16 20:02:00,,0833.6,5.00,0.00,28.4,27.0,00.0,37.2,30.2,15.5,0000.0,0011.34,0007.43,0006.91
2022-10-16 20:03:00,,0833.6,5.00,0.00,28.4,27.0,00.0,37.2,30.3,15.6,0000.1,0011.21,0007.36,0006.89
2022-10-16 20:04:00,,0833.6,5.00,0.00,28.4,27.1,00.0,37.2,30.3,15.5,0000.0,0011.18,0007.33,0006.87
2022-10-16 20:05:00,,0833.6,4.99,0.00,28.4,27.1,00.0,37.2,30.3,15.5,0001.2,0010.77,0007.33,0006.87
2022-10-16 20:06:00,,0833.7,5.00,0.00,28.5,27.1,00.0,37.2,30.3,15.5,0001.2,0010.73,0007.34,0006.89
2022-10-16 20:07:00,,0833.6,5.00,0.00,28.5,27.1,00.0,37.2,30.3,15.6,0000.3,0011.20,0007.34,0006.90
2022-10-16 20:08:00,,0833.6,5.00,0.00,28.5,27.1,00.0,37.2,30.3,15.4,0000.0,0011.34,0007.38,0006.91
2022-10-16 20:09:00,,0833.6,5.00,0.00,28.5,27.0,00.0,37.2,30.3,15.3,0000.2,0011.10,0007.37,0006.92
2022-10-16 20:10:00,,0833.6,5.00,0.00,28.5,26.9,00.0,37.2,30.3,15.4,0000.2,0010.91,0007.37,0006.93
2022-10-16 20:11:00,,0833.6,5.01,0.00,28.5,26.9,00.0,37.2,30.3,15.5,0000.5,0010.94,0007.40,0006.95
2022-10-16 20:12:00,,0833.6,5.00,0.00,28.5,26.9,00.0,37.2,30.3,15.6,0000.4,0010.97,0007.40,0006.95
2022-10-16 20:13:00,,0833.6,5.01,0.00,28.5,27.0,00.0,37.2,30.3,15.4,0000.2,0010.95,0007.41,0006.97
2022-10-16 20:14:00,,0833.6,5.00,0.00,28.5,26.9,00.0,37.2,30.3,15.5,-000.1,0011.09,0007.46,0007.00
2022-10-16 20:15:00,,0833.6,5.00,0.00,28.5,27.0,00.0,37.2,30.3,15.5,0000.3,0011.53,0007.49,0007.02
2022-10-16 20:16:00,,0833.6,4.98,0.00,28.5,27.0,00.0,37.2,30.3,15.7,0000.0,0011.66,0007.50,0007.03
2022-10-16 20:17:00,,0833.6,5.00,0.00,28.5,27.0,00.0,37.2,30.3,15.5,0000.3,0011.28,0007.52,0007.05
2022-10-16 20:18:00,,0833.6,5.00,0.00,28.5,26.9,00.0,37.2,30.2,15.5,0000.9,0010.73,0007.51,0007.07
2022-10-16 20:19:00,,0833.5,5.00,0.00,28.5,26.9,00.0,37.2,30.3,15.6,0000.6,0010.67,0007.51,0007.10
2022-10-16 20:20:00,,0833.5,5.01,0.00,28.5,27.0,00.0,37.2,30.3,15.7,0000.0,0011.18,0007.52,0007.10
2022-10-16 20:21:00,,0833.5,4.99,0.00,28.5,27.1,00.0,37.2,30.3,15.6,0000.2,0011.30,0007.53,0007.11
2022-10-16 20:22:00,,0833.5,4.98,0.00,28.5,27.1,00.0,37.2,30.3,15.6,0000.0,0011.36,0007.57,0007.13
2022-10-16 20:23:00,,0833.5,5.00,0.00,28.5,27.0,00.0,37.2,30.3,15.6,0000.0,0011.59,0007.61,0007.17
2022-10-16 20:24:00,,0833.5,5.01,0.00,28.5,27.0,00.0,37.2,30.3,15.6,0000.0,0012.36,0007.63,0007.17
2022-10-16 20:25:00,,0833.4,5.01,0.00,28.5,27.1,00.0,37.2,30.3,15.7,0000.0,0012.24,0007.60,0007.17
2022-10-16 20:26:00,,0833.4,5.00,0.00,28.5,27.1,00.0,37.3,30.3,15.7,0000.0,0012.14,0007.60,0007.17
2022-10-16 20:27:00,,0833.4,5.00,0.00,28.5,27.0,00.0,37.3,30.3,15.5,0000.0,0012.44,0007.61,0007.18
2022-10-16 20:28:00,,0833.4,5.00,0.00,28.5,27.0,00.0,37.3,30.3,15.5,0000.0,0012.59,0007.61,0007.18
2022-10-16 20:29:00,,0833.4,5.00,0.00,28.5,27.0,00.0,37.3,30.3,15.5,0000.0,0013.21,0007.62,0007.20
2022-10-16 20:30:00,,0833.4,4.98,0.00,28.5,27.1,00.0,37.3,30.3,15.5,0000.0,0013.11,0007.61,0007.19
2022-10-16 20:31:00,,0833.4,5.00,0.00,28.5,27.1,00.0,37.3,30.3,15.6,0000.0,0012.77,0007.59,0007.18
2022-10-16 20:32:00,,0833.4,5.00,0.00,28.5,27.2,00.0,37.3,30.4,15.6,0000.0,0013.08,0007.58,0007.19
2022-10-16 20:33:00,,0833.4,5.00,0.00,28.5,27.2,00.0,37.3,30.4,15.6,0000.0,0013.45,0007.56,0007.19
2022-10-16 20:34:00,,0833.4,5.00,0.00,28.5,27.1,00.0,37.3,30.4,15.4,0000.3,0013.49,0007.58,0007.22
2022-10-16 20:35:00,,0833.4,5.00,0.00,28.5,27.1,00.0,37.3,30.4,15.4,0001.3,0013.04,0007.61,0007.27
2022-10-16 20:36:00,,0833.4,5.01,0.00,28.5,27.1,00.0,37.3,30.4,15.4,0001.3,0013.25,0007.70,0007.30
2022-10-16 20:37:00,,0833.5,5.00,0.00,28.6,27.1,00.0,37.3,30.4,15.4,0001.2,0012.97,0007.74,0007.34
2022-10-16 20:38:00,,0833.4,5.00,0.00,28.5,27.1,00.0,37.3,30.4,15.4,0000.5,0012.60,0007.77,0007.37
2022-10-16 20:39:00,,0833.4,5.00,0.00,28.6,27.1,00.0,37.3,30.4,15.4,0000.5,0012.53,0007.80,0007.39
2022-10-16 20:40:00,,0833.3,5.00,0.00,28.6,27.1,00.0,37.3,30.4,15.3,0000.3,0012.42,0007.83,0007.41
2022-10-16 20:41:00,,0833.3,5.00,0.00,28.6,27.2,00.0,37.3,30.4,15.2,0001.4,0013.04,0007.89,0007.44
2022-10-16 20:42:00,,0833.3,5.00,0.00,28.6,27.3,00.0,37.3,30.4,15.2,0001.3,0012.92,0007.92,0007.48
2022-10-16 20:43:00,,0833.2,5.00,0.00,28.6,27.3,00.0,37.3,30.5,15.3,0000.3,0012.53,0007.93,0007.49
2022-10-16 20:44:00,,0833.3,4.99,0.00,28.6,27.4,00.0,37.3,30.5,15.4,0001.3,0012.12,0007.95,0007.50
2022-10-16 20:45:00,,0833.3,5.01,0.00,28.6,27.4,00.0,37.4,30.5,15.2,0001.0,0012.02,0007.92,0007.47
2022-10-16 20:46:00,,0833.3,5.00,0.00,28.6,27.4,00.0,37.4,30.5,15.2,0000.0,0011.97,0007.93,0007.44
2022-10-16 20:47:00,,0833.2,5.00,0.00,28.6,27.3,00.0,37.4,30.5,15.1,0000.0,0012.30,0007.93,0007.44
2022-10-16 20:48:00,,0833.1,5.00,0.00,28.7,27.3,00.0,37.4,30.5,15.3,0000.0,0012.55,0007.91,0007.42
2022-10-16 20:49:00,,0833.2,4.99,0.00,28.7,27.3,00.0,37.4,30.5,15.2,0000.0,0012.51,0007.89,0007.42
2022-10-16 20:50:00,,0833.1,5.00,0.00,28.7,27.3,00.0,37.4,30.5,15.3,0000.0,0012.54,0007.88,0007.40
2022-10-16 20:51:00,,0833.2,5.00,0.00,28.7,27.4,00.0,37.4,30.5,15.2,0000.0,0012.03,0007.90,0007.40
2022-10-16 20:52:00,,0833.2,5.00,0.00,28.7,27.4,00.0,37.4,30.6,15.3,0000.0,0011.57,0007.88,0007.39
2022-10-16 20:53:00,,0833.2,5.00,0.00,28.7,27.4,00.0,37.4,30.6,15.5,0000.2,0011.95,0007.87,0007.37
2022-10-16 20:54:00,,0833.2,5.00,0.00,28.7,27.4,00.0,37.4,30.6,15.3,0001.0,0012.38,0007.88,0007.37
2022-10-16 20:55:00,,0833.2,5.00,0.00,28.7,27.3,00.0,37.4,30.5,15.4,0001.1,0012.42,0007.92,0007.38
2022-10-16 20:56:00,,0833.2,5.00,0.00,28.7,27.3,00.0,37.4,30.5,15.3,0001.7,0012.78,0007.96,0007.39
2022-10-16 20:57:00,,0833.2,5.00,0.00,28.7,27.2,00.0,37.4,30.5,15.3,0000.8,0013.15,0007.91,0007.38
2022-10-16 20:58:00,,0833.2,5.00,0.00,28.7,27.2,00.0,37.4,30.5,15.2,0000.2,0015.08,0007.88,0007.36
2022-10-16 20:59:00,,0833.1,5.00,0.00,28.7,27.2,00.0,37.4,30.5,15.2,-000.6,0015.19,0007.90,0007.35
